Location: Lafig�re
(44.4503°N, 4.0357°E)
Time: 15:39:46
(UTC+00:00)

Transit 2A Rocket - Pass Details

Date: 25 January 2021
Orbit: 594 x 908 km, 66.7° (Epoch: 06 March)

Event Time Altitude Azimuth Distance (km) Brightness Sun altitude
Rises 13:38:55 0° 265° (W) 3,258 8.7 22.5°
Reaches altitude 10° 13:42:30 10° 289° (WNW) 2,260 7.6 22.2°
Maximum altitude 13:45:21 15° 323° (NW) 1,897 6.9 22.0°
Drops below altitude 10° 13:48:05 10° 357° (N) 2,150 6.9 21.8°
Sets 13:51:22 0° 22° (NNE) 3,003 7.5 21.5°
